Regional Weather Roundup
Issued by NWS

Home | Current Version | Previous Version | Text Only | Print | Product List | Glossary Off
Versions: 1 2 3 4 5 6 7 8 9 10 11 12 13 14 15 16 17 18 19 20 21 22 23 24 25 26 27 28 29 30 31 32 33 34 35 36 37 38 39 40 41 42 43 44 45 46 47 48 49 50

000
ASUS43 KIND 160700
RWRIN

WEATHER ROUNDUP FOR INDIANA
NATIONAL WEATHER SERVICE INDIANAPOLIS IN
300 AM EDT WED AUG 16 2017

NOTE: "FAIR" INDICATES FEW OR NO CLOUDS BELOW 12,000 FEET WITH NO
SIGNIFICANT WEATHER AND/OR OBSTRUCTIONS TO VISIBILITY.

* - STATION DOES NOT REPORT WEATHER SUCH AS PRECIPITATION OR FOG.

+ - STATION NOT QUALITY CONTROLLED BY THE NATIONAL WEATHER SERVICE.
    USE DATA WITH CAUTION...ESPECIALLY DEWPOINT AND RELATIVE
    HUMIDITY OBSERVATIONS.

INZ001>003-010>013-019-020-160800-
NORTHWEST INDIANA

CITY           SKY/WX    TMP DP  RH WIND       PRES   REMARKS
MICHIGAN CITY+ FOG       61  61 100 CALM      30.00F VSB 3/4
MONTICELLO +   PTCLDY    67  65  96 NE3       29.98S
RENSSELAER +   CLEAR     64  61  88 NE3       29.99S

$$

LMZ046-743>745-160800-
SOUTHERN LAKE MICHIGAN

STATION/POSITION TIME  TEMP    WIND        PRES    WAVE
                       AIR SEA DIR/SP/G            HT
                 (UTC) (F)     (DEG/KT/KT) (MB)    (FT)
BURNS HARBOR     0640   70      80/  5/  6 1015.9F
MICHIGAN CITY    0630   68      70/  4/  4   N/A
5NW MICH CITY    0650   71 74  100/  4/  6   N/A     3

$$

INZ004-005-014>016-021>024-160800-
NORTH CENTRAL INDIANA

CITY           SKY/WX    TMP DP  RH WIND       PRES   REMARKS
GOSHEN         CLEAR     61  59  93 NE3       30.00S FOG
PERU/GRISSOM   CLOUDY    69  68  96 CALM      29.98S
SOUTH BEND     CLEAR     64  64 100 CALM      30.00F
WARSAW +       CLEAR     63  63 100 CALM      30.01S FOG

$$

INZ006>009-017-018-025>027-160800-
NORTHEAST INDIANA

CITY           SKY/WX    TMP DP  RH WIND       PRES   REMARKS
FORT WAYNE     PTCLDY    64  61  90 N3        30.00R
KENDALLVILLE + FOG       61  61 100 CALM      30.02S VSB 1/4

$$

INZ028-029-035-036-043>045-051>053-160800-
WEST CENTRAL INDIANA

CITY           SKY/WX    TMP DP  RH WIND       PRES   REMARKS
LAFAYETTE      PTCLDY    69  68  96 CALM      29.97F
TERRE HAUTE    CLEAR     67  65  93 CALM      29.97S

$$

INZ030>032-037>040-046>048-054>057-064-065-160800-
CENTRAL INDIANA

CITY           SKY/WX    TMP DP  RH WIND       PRES   REMARKS
GREENWOOD *+   CLEAR     66  64  94 CALM      29.99F
INDIANAPOLIS   PTCLDY    73  67  81 NW3       29.97F
-EAGLE CREEK   CLEAR     72  67  84 CALM      29.97F
KOKOMO +       PTCLDY    66  65  96 CALM      30.00S
MT COMFORT *+  CLEAR     64  64 100 CALM      29.99S
SHELBYVILLE    CLEAR     66  63  90 E5        29.98S FOG

$$

INZ033-034-041-042-049-050-058-059-160800-
EAST CENTRAL INDIANA

CITY           SKY/WX    TMP DP  RH WIND       PRES   REMARKS
MUNCIE         CLEAR     68  64  87 CALM      29.99F
RICHMOND +     CLEAR     66  64  94 CALM      30.01S

$$

INZ060-061-067>069-081>083-085>088-160800-
SOUTHWEST INDIANA

CITY           SKY/WX    TMP DP  RH WIND       PRES   REMARKS
EVANSVILLE     CLEAR     72  70  93 CALM      29.95F FOG
HUNTINGBURG *+ CLEAR     70  69  97 CALM      29.96F FOG

$$

INZ062-063-066-070>080-084-089>092-160800-
SOUTH CENTRAL AND SOUTHEAST INDIANA

CITY           SKY/WX    TMP DP  RH WIND       PRES   REMARKS
BLOOMINGTON    FOG       65  62  90 CALM      29.98S VSB 1
MADISON *+     CLEAR     68  66  94 CALM      30.01F
SEYMOUR +      PTCLDY    68  68 100 CALM      29.98S FOG

$$





USA.gov is the U.S. government's official web portal to all federal, state and local government web resources and services.